| time (UTC) | temp F | wind direction | speed MPH | gust MPH | rain 1hr in | rain 24hr in | rain mn in | humidity % | barometer mb |
| 20260504050019 | 61 | 95 | 2.0 | 7.0 | 0.00 | 0.00 | 0.00 | 90 | 1011.9 |
| 20260504044524 | 61 | 108 | 2.0 | 6.0 | 0.00 | 0.00 | 0.00 | 90 | 1011.8 |
| 20260504043018 | 61 | 98 | 1.0 | 3.0 | 0.00 | 0.00 | 0.00 | 91 | 1011.8 |
| 20260504041516 | 61 | 45 | 0.0 | 3.0 | 0.00 | 0.00 | 0.00 | 91 | 1011.8 |
| 20260504040021 | 61 | 42 | 1.0 | 4.0 | 0.00 | 0.00 | 0.00 | 90 | 1011.8 |
| 20260504034513 | 61 | 37 | 0.0 | 4.0 | 0.00 | 0.00 | 0.00 | 90 | 1011.9 |
| 20260504033011 | 61 | 33 | 1.0 | 5.0 | 0.00 | 0.00 | 0.00 | 90 | 1012.0 |
| 20260504031509 | 62 | 36 | 2.0 | 5.0 | 0.00 | 0.00 | 0.00 | 90 | 1012.2 |
| 20260504030007 | 63 | 45 | 0.0 | 4.0 | 0.00 | 0.00 | 0.00 | 90 | 1012.3 |
| 20260504024508 | 63 | 110 | 1.0 | 3.0 | 0.00 | 0.00 | 0.00 | 90 | 1012.3 |
| 20260504023004 | 63 | 112 | 0.0 | 4.0 | 0.00 | 0.00 | 0.00 | 90 | 1012.4 |
| 20260504021502 | 63 | 105 | 2.0 | 6.0 | 0.00 | 0.00 | 0.00 | 90 | 1012.4 |
| 20260504020000 | 63 | 105 | 1.0 | 3.0 | 0.00 | 0.00 | 0.00 | 90 | 1012.4 |
| 20260504014618 | 63 | 109 | 0.0 | 3.0 | 0.00 | 0.00 | 0.00 | 90 | 1012.5 |
| 20260504013103 | 63 | 109 | 2.0 | 4.0 | 0.00 | 0.00 | 0.00 | 89 | 1012.5 |
| 20260504011559 | 63 | 113 | 1.0 | 6.0 | 0.00 | 0.00 | 0.00 | 89 | 1012.7 |
| 20260504010059 | 63 | 107 | 1.0 | 4.0 | 0.00 | 0.00 | 0.00 | 88 | 1012.8 |
| 20260504004553 | 63 | 103 | 2.0 | 4.0 | 0.00 | 0.00 | 0.00 | 88 | 1012.8 |
| 20260504003059 | 63 | 94 | 2.0 | 6.0 | 0.00 | 0.00 | 0.00 | 88 | 1012.8 |
| 20260504001551 | 64 | 108 | 2.0 | 6.0 | 0.00 | 0.00 | 0.00 | 87 | 1012.9 |
| 20260504000049 | 64 | 105 | 1.0 | 6.0 | 0.00 | 0.00 | 0.00 | 87 | 1012.9 |
| 20260503234550 | 64 | 113 | 2.0 | 7.0 | 0.00 | 0.00 | 0.00 | 87 | 1013.0 |
| 20260503233046 | 64 | 112 | 2.0 | 7.0 | 0.00 | 0.00 | 0.00 | 87 | 1013.0 |
| 20260503231544 | 64 | 117 | 5.0 | 8.0 | 0.00 | 0.00 | 0.00 | 86 | 1013.1 |
| 20260503230047 | 64 | 111 | 1.0 | 6.0 | 0.00 | 0.00 | 0.00 | 86 | 1013.2 |
| 20260503224542 | 64 | 110 | 3.0 | 7.0 | 0.00 | 0.00 | 0.00 | 86 | 1013.3 |
| 20260503223040 | 65 | 98 | 3.0 | 6.0 | 0.00 | 0.00 | 0.00 | 85 | 1013.2 |
| 20260503221536 | 65 | 102 | 2.0 | 7.0 | 0.00 | 0.00 | 0.00 | 84 | 1013.4 |
| 20260503220045 | 65 | 105 | 2.0 | 6.0 | 0.00 | 0.00 | 0.00 | 84 | 1013.5 |
| 20260503214534 | 65 | 126 | 4.0 | 8.0 | 0.00 | 0.00 | 0.00 | 84 | 1013.6 |
| 20260503213033 | 65 | 111 | 3.0 | 10.0 | 0.00 | 0.00 | 0.00 | 83 | 1013.6 |
| 20260503211532 | 65 | 107 | 3.0 | 7.0 | 0.00 | 0.00 | 0.00 | 83 | 1013.6 |
| 20260503210031 | 65 | 105 | 2.0 | 8.0 | 0.00 | 0.00 | 0.00 | 83 | 1013.6 |
| 20260503204531 | 65 | 99 | 2.0 | 9.0 | 0.00 | 0.00 | 0.00 | 83 | 1013.5 |
| 20260503203032 | 65 | 127 | 4.0 | 9.0 | 0.00 | 0.00 | 0.00 | 83 | 1013.4 |
| 20260503201529 | 65 | 109 | 5.0 | 11.0 | 0.00 | 0.00 | 0.00 | 83 | 1013.2 |
| 20260503200029 | 65 | 116 | 6.0 | 10.0 | 0.00 | 0.00 | 0.00 | 82 | 1013.0 |
| 20260503194528 | 65 | 112 | 6.0 | 10.0 | 0.00 | 0.00 | 0.00 | 82 | 1012.7 |
| 20260503193033 | 65 | 121 | 4.0 | 13.0 | 0.00 | 0.00 | 0.00 | 81 | 1012.4 |
| 20260503191527 | 66 | 114 | 7.0 | 13.0 | 0.00 | 0.00 | 0.00 | 80 | 1012.2 |
| 20260503190030 | 66 | 122 | 9.0 | 15.0 | 0.00 | 0.00 | 0.00 | 79 | 1011.9 |
| 20260503184525 | 66 | 123 | 9.0 | 15.0 | 0.00 | 0.00 | 0.00 | 78 | 1011.7 |
| 20260503183036 | 67 | 136 | 8.0 | 18.0 | 0.00 | 0.00 | 0.00 | 78 | 1011.4 |
| 20260503181624 | 67 | 105 | 9.0 | 17.0 | 0.00 | 0.00 | 0.00 | 77 | 1011.2 |
| 20260503180023 | 68 | 122 | 11.0 | 16.0 | 0.00 | 0.00 | 0.00 | 75 | 1011.2 |
| 20260503174523 | 69 | 135 | 9.0 | 16.0 | 0.00 | 0.00 | 0.00 | 75 | 1011.0 |
| 20260503173025 | 70 | 98 | 7.0 | 15.0 | 0.00 | 0.00 | 0.00 | 75 | 1010.7 |
| 20260503171520 | 71 | 92 | 10.0 | 16.0 | 0.00 | 0.00 | 0.00 | 74 | 1010.5 |
| 20260503081627 | 63 | 121 | 3.0 | 9.0 | 0.00 | 0.00 | 0.00 | 85 | 1015.3 |
| 20260503080110 | 63 | 92 | 3.0 | 7.0 | 0.00 | 0.00 | 0.00 | 86 | 1015.3 |
| 20260503071545 | 62 | 107 | 1.0 | 3.0 | 0.00 | 0.00 | 0.00 | 88 | 1015.2 |